Location: C.E.K. Mees Observatory
(42.7003°N, 77.4088°W)
Time: 08:06:36
(UTC-04:00)

Tiangong 1 - Pass Details

Date: 10 October 2017
Orbit: 292 x 320 km, 42.8° (Epoch: 22 October)

Event Time Altitude Azimuth Distance (km) Brightness Sun altitude
Rises 19:19:49 0° 267° (W) 2,042 7.2 -9.0°
Reaches altitude 10° 19:21:49 10° 268° (W) 1,207 5.3 -9.4°
Maximum altitude 19:24:31 87° 354° (N) 315 0.6 -9.9°
Enters shadow 19:26:23 18° 86° (E) 866 2.2 -10.2°
